Theta_e
308 305 307 314 314 310 315 318 315 315 315 315 316 320 325 328 331 332 331 332 332 332 335 336 337 337 338 338 336 336 337 336 335 335 335 337 337 336 336 336 336 336 336 334 334 333 332 330 330
307 306 312 312 310 313 313 310 312 314 316 315 320 321 321 325 328 328 331 332 332 332 336 337 339 338 338 337 332 332 334 332 334 334 334 334 335 336 336 334 333 332 334 332 330 330 330 329 329
307 309 312 309 307 310 310 305 309 310 314 313 315 316 317 321 327 328 332 332 332 332 336 338 339 337 336 335 332 331 332 330 330 330 330 331 331 329 328 328 328 329 329 328 328 328 328 328 328
306 310 310 307 310 307 307 307 305 309 312 310 314 315 317 321 326 329 331 332 331 333 336 338 337 336 335 334 332 330 330 329 328 328 328 328 328 328 328 329 329 328 327 324 319 316 316 316 318
307 310 306 308 308 307 305 306 307 309 310 312 313 313 315 320 322 329 332 332 333 334 337 337 336 335 334 334 331 329 330 329 329 329 328 328 328 327 325 319 314 313 312 312 312 312 311 311 311
308 307 305 306 307 306 306 310 308 308 310 310 312 312 315 318 320 325 330 332 334 335 336 334 335 334 332 333 331 329 329 329 328 327 325 323 320 317 315 313 313 313 312 311 310 308 307 307 307
305 304 305 304 304 304 305 308 306 309 308 309 313 311 314 317 319 322 327 330 333 333 333 333 332 332 331 331 332 330 329 329 327 324 322 319 316 314 313 312 312 309 306 305 305 305 305 305 304
306 303 305 305 307 308 308 307 310 308 308 311 311 311 313 316 318 322 328 329 332 331 331 331 331 331 329 329 331 330 329 328 326 323 320 317 315 313 312 312 310 306 304 304 304 304 304 304 304
305 302 304 305 306 308 308 306 309 310 311 311 312 313 315 315 319 322 327 329 330 330 330 330 329 329 328 329 330 330 328 327 324 323 320 316 313 312 312 311 309 305 304 304 304 304 304 304 304
301 302 304 304 306 306 308 308 310 308 307 308 311 312 314 315 318 320 322 324 327 328 330 329 328 329 327 327 329 328 328 327 324 320 316 314 312 312 312 311 309 305 304 304 304 304 304 304 305
303 305 305 304 306 307 306 308 310 306 305 308 310 311 312 317 319 320 320 319 318 322 326 330 327 328 325 326 328 327 328 327 322 315 313 313 312 312 311 311 309 306 305 304 304 304 304 305 305
303 303 305 306 307 308 305 308 307 308 309 312 310 309 311 315 320 318 319 319 320 320 318 322 329 328 326 326 327 326 327 325 319 316 312 311 311 311 311 311 309 307 305 304 304 304 304 305 304
304 303 305 305 306 306 306 305 306 305 311 311 311 310 310 311 314 317 319 320 321 319 321 319 321 321 321 324 326 326 326 322 315 312 311 310 310 310 310 310 309 308 306 304 304 304 304 304 304
306 306 307 306 305 305 304 304 305 306 309 309 309 310 310 310 312 318 319 318 316 317 319 321 321 321 319 318 324 325 324 320 315 312 310 309 309 309 309 309 309 307 304 304 304 304 303 304 305
308 308 308 308 305 305 306 306 305 305 307 308 309 310 311 311 312 315 314 316 315 315 318 319 320 321 319 318 323 323 322 319 315 311 309 309 308 309 308 308 307 305 303 303 303 303 304 304 304
305 305 308 308 307 305 307 309 309 308 308 308 309 309 310 310 310 312 314 316 317 317 317 319 320 320 319 317 321 322 320 318 314 311 309 308 308 307 307 307 305 303 303 303 303 303 303 304 304
308 307 306 307 306 307 307 309 307 310 308 308 309 309 310 311 311 310 311 313 314 315 316 318 320 320 318 317 317 319 318 316 314 311 308 307 307 306 306 305 304 303 303 303 303 303 303 303 303
307 307 306 306 306 306 307 308 308 308 308 308 309 309 308 309 312 312 311 310 311 313 315 316 318 320 320 319 317 317 316 315 313 310 308 307 307 306 305 304 303 302 303 303 303 303 303 303 303
306 305 306 305 305 307 307 308 308 306 307 308 309 308 308 308 311 312 312 312 311 311 313 314 314 317 320 320 319 317 315 314 313 311 309 307 306 306 305 303 302 302 302 302 302 302 302 302 302
307 308 306 304 305 305 306 307 306 305 306 307 307 307 308 308 310 311 311 311 310 310 310 312 313 315 317 319 318 317 314 314 313 311 310 308 306 305 305 303 302 302 302 302 302 302 302 302 302
306 308 306 307 305 305 305 306 306 304 304 307 308 309 309 309 310 311 311 311 311 310 310 309 310 312 314 318 319 317 316 314 313 311 309 307 306 306 304 303 302 302 302 301 301 301 301 301 300
303 306 306 307 307 308 305 307 305 306 306 305 306 307 308 308 310 310 311 310 311 311 309 309 309 311 314 317 318 317 315 315 314 313 310 308 307 305 304 303 302 301 301 301 301 301 301 300 299
298 298 303 307 307 307 307 307 305 304 305 305 306 307 307 308 309 310 311 311 311 310 310 309 309 309 312 314 316 315 316 315 314 313 310 308 306 305 304 303 302 301 301 301 301 301 300 299 297
297 299 302 304 305 306 304 305 304 303 305 305 304 306 307 309 309 310 310 311 311 311 310 309 309 308 310 313 314 314 315 315 315 313 310 307 305 304 303 302 301 301 300 300 300 300 299 297 297
302 302 304 307 307 305 304 305 305 303 304 304 305 305 306 308 309 309 309 308 309 310 311 310 309 308 309 311 312 313 314 314 314 313 311 308 305 304 303 302 301 301 300 300 299 299 297 296 296
295 301 306 308 308 307 303 307 305 304 303 301 304 305 305 305 306 307 307 308 309 309 310 310 309 308 308 309 310 311 313 314 314 313 311 309 306 305 304 302 301 300 299 299 298 296 296 296 296
297 300 298 303 291 303 298 301 301 301 301 303 303 303 304 303 304 305 306 307 308 308 309 309 309 308 308 308 309 310 312 313 313 312 310 307 306 304 302 301 300 299 298 298 296 295 296 295 295
299 299 301 302 301 305 296 298 301 297 300 302 298 300 301 302 302 303 304 305 306 307 307 307 308 307 308 307 308 310 312 312 312 310 308 306 304 303 301 300 299 298 298 296 295 296 295 295 295
300 303 302 304 305 304 304 302 291 293 291 293 292 295 296 298 299 300 300 301 303 304 304 305 305 305 304 305 307 309 311 311 309 307 306 304 303 301 300 299 298 297 297 295 295 295 294 294 293
301 301 303 302 301 298 297 299 285 284 283 286 291 294 295 296 296 297 298 299 299 300 301 302 302 302 302 303 304 307 308 308 306 304 303 302 301 299 299 298 297 296 294 294 294 294 293 293 293
Wind_Speed
9 7 10 9 2 3 4 7 3 4 4 4 3 4 7 7 6 5 8 18 23 29 29 26 23 23 23 22 19 18 17 16 17 16 15 14 14 13 12 11 10 10 9 8 7 6 5 4 3
10 10 10 4 4 2 6 5 10 13 9 0 4 4 1 5 6 3 16 23 28 29 29 29 29 27 24 21 18 16 14 15 17 17 16 15 15 15 15 13 11 9 9 8 7 5 5 4 4
12 14 7 4 4 9 6 7 14 7 22 16 3 4 2 3 8 6 10 25 31 30 31 30 29 26 24 21 17 17 17 16 17 16 15 14 15 14 11 9 8 8 8 7 6 4 4 4 4
11 8 2 4 10 8 7 4 5 3 4 13 7 3 5 7 5 14 17 27 32 31 31 31 27 23 22 20 18 18 18 18 17 17 17 16 15 13 12 10 9 8 7 7 6 6 6 5 5
15 5 3 4 10 5 5 10 7 3 3 8 6 4 4 9 10 18 24 28 30 32 32 30 27 24 21 19 20 20 20 19 19 18 17 16 14 13 11 10 9 8 7 6 6 6 6 6 6
7 2 2 10 14 4 6 21 8 6 7 4 4 3 5 9 15 21 27 28 28 31 30 29 27 24 21 23 22 21 21 20 18 17 16 15 14 12 11 9 8 8 8 8 8 8 8 8 9
6 4 6 4 12 6 8 9 8 17 6 17 6 7 7 14 18 20 28 29 28 26 28 29 26 25 22 24 25 23 22 21 19 18 17 16 15 13 12 11 10 9 9 8 8 7 7 7 7
7 4 5 6 9 15 6 13 11 18 17 26 11 7 6 19 21 23 28 29 29 29 29 31 29 28 25 22 27 26 24 23 21 21 19 18 16 15 14 12 10 10 9 9 8 7 7 6 6
10 3 7 10 10 18 3 6 10 9 12 10 11 19 14 15 27 28 31 32 32 32 32 32 32 30 28 23 27 27 26 24 24 22 21 19 18 16 14 13 12 12 11 10 9 7 6 6 6
6 7 12 7 14 7 5 8 7 5 6 7 12 20 17 18 31 34 36 38 38 36 36 35 34 32 30 27 28 29 28 27 25 23 22 21 19 17 15 14 13 12 10 10 9 8 7 8 8
7 21 7 7 24 16 6 5 7 6 4 12 18 23 17 20 32 36 37 37 39 38 37 37 35 34 33 31 31 31 29 27 26 24 23 21 19 18 16 15 14 13 12 11 10 9 10 10 10
9 7 21 10 23 11 7 11 6 18 18 14 10 10 18 24 34 37 38 38 38 39 37 37 37 35 34 33 34 32 30 28 27 26 24 22 21 19 17 16 15 13 13 12 12 12 11 11 11
13 6 11 22 31 27 21 10 11 14 28 19 16 16 16 26 33 37 37 36 39 40 40 37 36 36 35 34 35 33 31 30 27 26 25 23 21 20 19 17 16 15 15 14 13 12 11 10 10
6 7 25 28 22 13 14 16 9 16 30 27 24 23 21 22 32 37 38 39 38 39 40 39 38 36 34 34 36 34 31 29 28 27 26 24 22 20 19 18 17 17 16 14 13 12 11 10 10
19 17 15 21 6 10 9 20 21 22 26 35 31 28 28 28 32 38 36 39 37 36 38 39 38 36 34 33 35 34 32 31 30 29 27 25 24 22 21 20 19 17 16 15 13 12 11 11 11
4 4 12 12 17 7 13 31 19 30 25 29 32 37 33 28 32 34 36 37 39 38 36 39 39 37 35 34 35 34 33 33 32 30 29 27 25 24 23 21 19 18 17 15 14 13 13 12 13
17 19 19 13 6 8 16 25 7 17 30 31 35 37 41 40 37 36 38 38 38 38 39 39 40 40 37 36 33 34 33 33 33 32 31 28 27 26 24 22 21 19 18 16 15 15 14 14 14
24 23 22 21 7 12 17 30 16 12 21 24 29 31 37 42 48 41 38 36 37 41 40 40 40 41 40 38 36 35 34 35 33 33 32 30 28 27 25 24 23 21 19 18 17 16 16 16 16
20 21 19 13 9 14 20 28 17 13 16 18 24 24 34 38 35 38 44 46 45 44 45 44 43 44 46 45 42 40 40 39 37 35 33 32 31 29 27 25 24 22 20 19 19 18 17 17 17
26 26 24 18 9 11 12 20 8 9 10 18 22 25 32 33 33 34 34 35 42 47 50 49 47 48 48 48 45 45 43 42 38 35 35 35 33 29 28 27 24 23 23 21 21 20 19 18 17
22 25 27 16 6 17 7 23 15 7 7 19 24 30 29 35 38 40 38 36 34 41 47 50 52 51 50 49 49 46 43 41 40 40 39 38 34 32 31 28 27 26 24 23 22 21 20 19 18
25 20 24 23 15 18 10 17 12 18 21 13 24 29 33 36 37 38 38 39 35 32 40 41 49 52 51 51 51 51 50 48 45 43 41 39 36 35 32 30 29 27 25 25 23 22 21 21 19
16 9 16 16 13 12 10 8 12 14 14 16 19 29 31 38 40 40 38 36 40 36 31 35 45 50 51 54 53 51 51 49 46 44 42 39 38 36 33 31 30 28 26 26 24 23 22 22 21
20 12 20 19 14 19 20 16 21 8 17 14 14 28 35 38 39 39 38 39 39 39 38 42 45 49 52 54 52 53 52 52 48 45 42 42 39 37 34 33 31 28 28 26 24 23 23 22 21
7 15 10 15 15 19 20 16 21 7 18 21 21 24 33 33 33 34 35 38 37 38 38 36 39 46 52 53 52 53 53 51 49 44 42 41 41 39 36 34 31 29 27 25 24 23 22 21 20
7 5 3 7 5 12 5 10 10 25 20 15 27 34 33 36 38 37 36 34 33 32 35 36 38 42 49 52 53 53 52 51 49 44 40 39 39 36 34 32 30 28 26 25 24 23 22 21 21
6 7 3 6 3 2 3 4 7 6 14 22 21 26 28 16 18 22 25 27 25 27 29 31 36 40 45 49 52 52 52 51 49 44 39 36 33 32 31 30 29 27 26 24 23 23 22 21 21
10 7 2 4 2 4 3 2 5 3 10 13 10 4 9 11 14 19 24 28 30 31 31 31 33 38 42 47 49 51 52 50 46 41 38 35 31 30 31 31 29 28 26 25 24 23 23 22 22
6 6 6 5 4 3 2 4 3 5 4 6 7 9 12 17 15 14 15 16 18 19 24 28 32 36 40 43 48 50 49 45 41 39 36 33 30 30 31 30 29 27 26 25 24 23 23 22 22
3 4 4 4 3 2 3 5 4 5 6 4 6 13 12 10 11 10 9 9 9 11 15 20 25 30 33 36 42 44 43 41 39 36 33 30 29 28 28 28 27 26 25 24 24 23 23 23 23
Wind_Direction
214 199 171 163 102 64 240 241 252 227 235 202 206 190 205 198 165 210 193 173 173 175 173 174 171 174 173 173 178 174 170 167 170 169 161 159 159 158 156 156 169 179 191 175 170 177 179 174 174
207 180 172 157 119 174 251 213 228 222 223 340 165 181 196 244 194 218 169 170 172 178 175 173 171 175 179 185 186 187 182 176 176 177 178 174 166 154 153 158 161 166 168 167 163 170 170 177 180
198 181 172 150 168 218 230 213 232 260 249 244 244 211 228 231 221 203 185 175 173 181 181 173 178 184 186 189 191 183 181 176 173 170 167 169 170 170 170 169 166 162 164 173 182 197 206 216 225
187 186 133 133 219 241 206 230 230 230 227 211 204 245 220 216 189 185 181 174 179 186 185 180 186 190 189 190 190 183 180 178 174 172 171 177 178 181 182 184 182 181 185 192 196 203 213 221 230
189 191 180 205 243 236 236 239 199 293 296 156 179 243 232 207 200 185 178 178 184 185 185 184 187 191 197 201 194 189 185 186 185 184 185 187 187 189 190 192 192 196 207 220 229 239 247 253 258
195 192 179 215 231 213 228 239 221 236 233 257 203 170 241 210 202 195 188 185 187 185 187 190 193 196 198 203 198 195 196 195 194 193 191 191 191 195 198 203 214 227 238 247 252 257 260 263 264
179 154 226 219 235 262 233 195 188 232 236 254 212 159 231 216 197 201 195 192 187 192 193 197 198 198 200 204 200 201 202 201 198 198 198 199 200 202 207 213 221 229 233 235 239 242 249 254 258
216 149 220 215 223 250 205 186 229 213 241 252 238 224 222 230 201 189 188 189 189 193 198 199 199 201 202 215 205 202 203 204 202 202 203 203 205 208 211 216 224 230 229 230 231 234 240 245 253
196 215 216 206 211 229 181 191 213 227 213 211 212 234 232 226 198 186 188 192 195 199 202 203 205 205 207 214 205 205 205 206 207 207 207 207 209 211 214 220 223 223 225 228 230 234 244 257 265
193 217 222 211 223 231 190 188 188 171 203 213 224 228 224 205 193 193 195 198 200 202 204 205 207 210 210 215 212 208 208 210 211 211 210 211 213 216 221 224 227 228 231 235 242 251 260 268 276
213 239 216 231 236 250 235 237 242 176 198 220 213 226 219 199 193 199 204 208 208 207 203 205 209 210 213 216 216 213 211 212 212 213 213 216 219 222 224 227 229 232 236 243 249 254 262 271 277
252 238 244 252 246 246 231 246 230 227 243 256 237 252 229 209 203 206 208 210 212 213 213 209 208 211 215 219 219 215 213 213 213 215 217 219 222 225 228 231 233 237 242 246 249 254 261 269 278
243 233 257 248 247 253 256 231 225 223 233 234 269 266 251 230 224 220 217 214 215 217 215 213 215 219 219 219 218 216 214 215 216 217 220 222 225 228 231 233 237 242 244 246 249 255 262 269 276
251 252 248 247 253 250 239 253 225 236 240 255 263 262 252 242 232 223 219 221 224 224 219 215 216 222 227 218 214 215 217 218 220 222 224 226 227 230 234 236 237 238 241 245 249 255 261 266 275
266 269 264 258 233 249 235 266 236 242 238 248 254 252 247 247 236 233 232 229 230 229 223 222 221 223 225 222 217 217 218 221 223 225 227 229 231 233 233 233 234 237 240 244 249 253 258 264 272
271 228 248 246 228 218 171 259 250 233 225 238 241 244 243 245 242 241 239 234 236 233 231 227 224 225 224 225 220 220 220 222 225 227 229 231 232 232 232 234 236 237 239 243 247 250 255 266 276
236 248 237 259 216 202 195 256 220 222 217 230 235 241 245 244 243 243 242 241 239 240 236 231 229 227 226 226 224 225 225 226 228 229 230 231 231 231 232 232 233 236 240 244 248 254 263 271 279
229 229 239 242 201 198 222 248 238 223 211 226 231 233 236 237 240 240 241 245 244 243 240 238 234 230 227 226 224 225 226 227 228 229 229 230 230 231 231 232 234 235 239 243 249 257 264 271 277
249 240 248 236 215 210 226 248 235 228 230 233 237 237 242 241 244 241 242 244 247 244 242 239 237 233 226 224 220 222 225 225 225 226 228 230 229 228 230 232 234 238 242 245 250 257 265 273 280
236 244 242 252 210 229 245 259 222 224 239 230 234 242 241 248 246 245 248 244 243 246 244 241 238 234 231 228 226 225 226 226 228 228 229 228 228 229 231 233 236 239 242 247 251 257 264 269 276
258 228 234 237 209 235 243 261 252 248 254 257 249 251 252 253 257 259 253 249 248 242 241 242 240 236 231 228 226 226 228 228 226 226 227 226 226 229 232 233 234 237 241 246 251 258 265 269 271
257 242 236 238 237 239 174 260 236 235 240 236 249 249 254 253 255 259 257 254 253 247 239 241 240 237 234 228 226 227 229 227 229 230 229 227 228 229 231 232 234 237 239 244 251 257 263 267 270
246 268 276 235 233 246 215 257 254 235 237 234 239 246 246 251 254 253 256 259 255 251 243 246 243 238 233 231 228 228 229 232 235 233 230 228 228 229 230 232 234 236 240 244 249 255 261 265 268
227 239 261 250 243 247 235 226 258 211 225 236 233 238 239 242 250 255 257 260 263 260 251 248 243 239 233 231 229 230 229 231 230 230 229 227 227 229 230 231 233 236 240 244 249 254 258 263 265
190 208 230 216 217 237 223 216 231 213 215 225 232 233 241 240 244 250 258 260 256 253 254 244 240 237 233 231 230 231 231 232 233 231 230 226 226 226 229 230 233 237 241 244 248 253 258 260 261
181 201 209 232 213 219 163 212 226 224 236 244 235 243 256 251 250 254 259 262 260 255 252 248 241 238 234 233 232 231 232 231 231 231 232 231 230 232 232 233 235 236 238 242 249 254 256 256 256
197 228 140 346 339 99 192 278 304 191 223 233 239 246 254 273 268 264 264 261 259 256 253 254 246 238 238 234 231 229 229 228 228 228 230 231 232 231 232 234 234 234 238 244 250 254 255 254 254
185 152 160 186 273 221 242 267 225 251 217 232 244 267 294 295 286 277 269 261 255 254 256 253 249 244 240 234 231 229 227 226 226 225 227 227 227 227 228 228 228 231 235 244 248 251 252 253 254
166 178 182 187 202 97 348 275 269 241 259 279 338 339 331 319 319 306 293 281 269 254 247 242 238 237 234 231 228 226 223 222 221 221 222 224 226 224 222 223 228 232 240 245 248 249 251 252 253
249 155 143 152 175 120 132 273 331 328 326 305 338 338 334 330 334 332 320 311 293 264 244 235 233 234 233 231 228 222 216 214 213 214 217 221 221 219 221 222 228 235 240 243 246 249 253 255 256